星链-35922(STARLINK-35922)

导读

STARLINK-35922是美国于2025年11月15日发射的星链卫星,归属于SpaceX公司的星链星座项目。该项目旨在构建全球卫星互联网,为全球偏远、欠发达地区及各类移动场景提供低成本、高覆盖的宽带网络服务,此卫星也是星链大规模低轨组网部署的组成单元之一。

Basic Information
目录编号:
66502
目录名称:
STARLINK-35922
国际标识:
2025-263T
轨道中心:
EARTH
卫星名称:
星链-35922
卫星全名:
星链-35922(STARLINK-35922)
卫星状态:
在轨 (已飞行294 天)
发射日期:
2025-11-15 UTC
国别 :
美国 (US)
星等 :
--
Orbit Information
数据来源 国际轨道数据
星历时间: 2026-09-05T19:45:51+0800
5小时前
查看轨道信息
半长轴: 6861.157km
偏心率: 0.0000308
轨道倾角: 42.997°
近地点辐角 226.881°
升交点赤经 55.567°
平近点角 133.202°
近地点: 482.808km
远地点: 483.232km
周期: 94.266分钟
每日圈数: 15.275898
Detailed Information
固有亮度:
5
最大亮度:
2.5
卫星平台:
Starlink V1.0
覆盖范围:
全球
运营商:
太空探索技术公司
运营商所在国:
美国
制造商(研发单位):
太空探索技术公司
制造商所在国:
美国
使用方式:
暂无
Satellite Introduction
Starlink 计划是 SpaceX 推出的全球卫星互联网项目,通过发射低轨道卫星,为全球尤其是偏远地区提供高速、低延迟的互联网服务。自 2019 年起,Starlink 已部署数千颗卫星,旨在缩小全球数字鸿沟,推动互联网普及。该项目还为军事、航空等行业提供通信支持,带来广泛经济效益。
2D Orbit Map
3D Orbit Map
Orbit Altitude Analysis Chart
Orbit Inclination Analysis Chart
Orbit Comprehensive Analysis Chart
View Comprehensive Chart
Conjunction Data List
Event ID Objects TCA Miss Dist (km) Collision Risk Probability Collision Risk Index (CRI) Action
CDM_260907-163205-733106-650221
2026-09-07T
16:32:55+0000
0.072 km
近距离
1.250142E-3 极高风险 0.97
CDM_260907-145805-733106-650221
2026-09-07T
14:58:46+0000
1.572 km
极远距离
3.784238E-6 低风险 0.47
CDM_260907-180705-733106-650221
2026-09-07T
18:07:04+0000
1.620 km
极远距离
3.452213E-6 低风险 0.46